Preview of NWS' New Version of Forecast
This preview is not operational and should not be used for support decisions.

Regional Weather Roundup (RWR)

Issued by National Weather Service (NWS)

                            
000
ASCA42 TJSJ 172010
RWRPR 
PUERTO RICO/U.S. VIRGIN ISLANDS HOURLY WEATHER ROUNDUP
NATIONAL WEATHER SERVICE SAN JUAN PR
400 PM AST WED APR 17 2019

PRZ001>002-007>008-010-172100-
PUERTO RICO
  
CITY           SKY/WX    TMP DP  RH WIND       PRES   REMARKS
SAN JUAN LMM   MOSUNNY   84  72  65 E21       29.96S                  
AGUADILLA      PTSUNNY   82  72  69 E13G23    29.97F                  
CEIBA          SUNNY     86  68  54 MISG      29.98F                  
$$

VIZ001>002-172100-
U.S. VIRGIN ISLANDS
  
CITY           SKY/WX    TMP DP  RH WIND       PRES   REMARKS
CHARLOTTE AMA  MOSUNNY   84  66  54 E10       29.95F                  
CHRISTIANSTED  MOSUNNY   81  66  61 E17G24    29.95F                  
$$

HOURLY WEATHER ROUNDUP FOR THE NEWS MEDIA
  
CITY           SKY/WX    TMP DP  RH WIND       PRES   REMARKS
ORLANDO        FAIR      81  59  47 E13       30.07F                  
NEW YORK       PTSUNNY   56  30  37 S13       30.18F                  
NEWARK         FAIR      59  26  28 SE7       30.15F                  
CHICAGO        PTSUNNY   74  55  51 S16       29.68F                  
HARTFORD       FAIR      57  29  34 SE13      30.14S                  
BOSTON         FAIR      53  32  44 E16       30.14F                  
DALLAS         CLOUDY    76  69  79 SE13      29.73F                  
PHILADELPHIA   PTSUNNY   62  37  39 S8        30.13F                  
LOS ANGELES    MOSUNNY   67  51  56 W13       30.13F                  
WASHINGTON DC  CLOUDY    72  47  40 E12G20    30.05F